Wind_Speed
55 56 60 65 65 67 69 70 70 68 66 71 69 63 57 59 62 68 72 68 66 65 64 64 59 55 55 53 54 55 53 52 53 54 56 52 46 41 40 41 42 42 45 43
49 53 57 62 68 71 71 75 74 74 73 70 70 69 62 59 61 61 63 62 66 68 65 63 59 60 53 54 56 56 53 51 53 53 55 49 44 41 41 41 41 43 43 42
48 47 53 55 60 66 74 77 72 77 79 73 73 72 68 62 60 59 60 58 56 59 58 59 61 60 55 53 54 53 51 48 49 51 48 44 43 41 40 41 41 43 39 34
44 38 42 45 52 54 65 70 74 77 79 80 74 75 71 64 62 58 54 54 53 49 46 48 52 54 51 50 50 46 47 48 46 43 42 43 40 37 40 40 38 35 31 29
31 35 34 36 37 39 44 54 63 64 77 80 78 79 70 67 63 57 51 46 43 43 44 45 44 45 47 47 44 43 44 42 39 38 38 36 35 38 37 35 33 29 29 29
28 24 27 28 30 29 28 33 39 40 46 59 78 64 71 65 58 52 46 42 37 40 41 40 42 43 43 43 41 41 37 33 32 31 31 33 36 34 35 32 29 29 30 29
17 19 23 25 24 21 19 23 26 38 48 57 70 52 69 63 52 49 45 41 38 38 38 39 38 39 38 39 38 35 31 28 26 28 31 34 33 33 30 28 29 29 29 27
19 15 14 15 18 22 25 20 26 30 36 44 50 45 66 57 43 50 46 40 39 36 34 36 37 36 33 29 30 30 28 25 26 28 30 30 31 29 27 27 28 28 28 28
17 21 13 15 17 19 24 29 23 28 27 33 38 42 59 58 53 38 32 42 40 38 41 38 34 30 26 27 25 24 23 25 25 27 29 29 27 26 26 26 26 27 28 26
17 16 11 16 15 13 22 27 27 26 31 21 30 34 56 53 48 43 33 34 41 43 43 31 27 26 28 27 25 23 24 25 26 27 24 25 25 23 24 25 25 25 24 25
16 16 12 13 15 19 19 21 19 19 25 15 21 31 38 48 47 42 38 33 32 26 33 34 29 27 30 23 22 23 25 24 22 21 22 22 22 22 23 24 23 24 24 25
13 15 13 14 15 15 10 19 25 22 23 25 20 18 37 54 46 49 39 32 25 19 23 33 32 28 25 22 23 24 21 19 20 20 21 21 20 21 21 23 24 25 25 23
14 13 13 11 12 15 9 7 9 26 29 33 19 12 30 40 49 46 50 46 39 33 29 29 26 25 24 24 23 20 18 20 21 21 17 18 19 20 21 21 21 21 21 18
19 16 16 16 19 18 14 11 16 16 26 30 33 29 28 37 43 39 36 39 39 38 29 28 28 26 26 24 21 19 20 21 19 16 16 17 18 19 19 19 18 17 16 18
18 19 19 17 18 21 20 18 16 21 23 29 35 37 30 46 48 46 42 41 41 34 34 29 28 26 24 22 20 21 21 20 17 16 16 17 17 17 18 19 19 19 19 19
14 13 20 19 19 22 18 22 24 25 22 26 34 49 51 54 50 50 49 44 39 38 33 30 28 26 24 22 22 21 20 17 16 15 16 15 16 17 16 16 14 14 14 12
14 8 7 12 15 19 14 13 21 28 25 24 32 44 46 49 56 57 50 44 40 36 31 27 28 27 24 22 21 19 17 16 15 15 15 14 15 12 11 11 8 8 8 8
11 9 6 9 12 15 14 13 16 22 24 24 32 48 48 50 57 58 52 47 42 36 33 29 30 27 25 23 20 18 16 16 15 14 13 13 12 10 9 7 6 5 5 7
12 10 10 9 13 13 13 12 16 24 21 25 31 48 53 55 54 58 53 51 44 38 35 33 30 28 25 22 19 17 17 14 14 14 12 12 10 9 8 5 4 3 6 7
12 12 12 14 15 17 17 9 12 11 11 19 38 54 57 54 53 58 56 51 44 41 37 33 30 29 23 20 17 17 15 14 13 12 11 10 11 9 6 5 4 3 6 8
16 15 13 13 18 19 15 8 7 3 14 20 38 55 58 55 50 57 56 51 47 42 37 34 31 26 21 17 17 16 14 13 12 11 10 10 10 7 6 6 5 4 7 8
15 16 13 18 19 22 18 18 8 10 15 24 47 58 55 48 54 57 57 52 48 41 37 35 29 23 18 18 16 15 14 12 11 9 9 8 7 6 6 8 8 4 7 9
13 17 18 13 12 16 15 11 2 11 17 25 47 58 52 52 58 59 56 52 46 40 36 34 27 22 18 17 15 14 13 11 10 7 8 6 5 5 5 8 11 8 8 12
13 10 13 14 16 15 8 5 7 17 26 30 48 62 56 54 52 59 54 48 43 39 34 30 26 22 19 17 15 14 12 11 7 7 7 4 3 2 6 8 9 9 11 13
20 18 16 14 13 8 1 7 16 29 38 38 50 64 57 55 44 58 51 47 41 37 32 29 28 21 18 17 17 15 12 9 6 6 6 4 2 3 5 7 11 10 14 16
22 18 13 10 10 4 15 11 21 29 39 42 49 64 60 60 58 54 50 46 40 38 33 31 28 23 20 18 17 15 13 9 6 7 8 6 3 5 6 9 11 11 17 16
Wind_Direction
261 258 256 251 251 252 249 249 248 245 244 245 248 245 240 242 241 241 242 242 241 242 243 247 250 253 264 263 268 268 266 266 270 272 273 276 285 288 286 285 291 292 292 289
268 266 266 259 253 249 246 245 246 246 245 245 246 244 240 240 239 241 242 243 241 242 245 245 248 253 258 264 265 263 263 267 270 268 267 276 282 282 281 286 292 290 288 282
284 282 276 267 258 250 246 243 239 241 241 240 242 243 242 239 241 240 241 244 247 248 247 247 250 253 253 255 258 258 261 263 265 266 270 275 279 279 284 286 286 285 282 283
286 281 270 265 264 258 248 240 235 232 234 239 239 242 241 238 239 240 240 242 245 249 251 251 247 243 246 250 253 256 259 264 269 274 272 273 275 280 282 282 283 277 278 280
283 275 266 262 269 266 259 243 234 234 231 231 233 237 235 237 236 240 242 244 244 245 246 247 241 242 246 249 254 259 261 267 271 269 270 273 274 276 280 279 272 274 276 277
275 263 267 273 272 272 253 243 234 232 223 228 227 233 231 236 236 239 242 239 237 236 239 241 239 241 244 250 254 256 264 266 261 263 267 268 270 274 274 268 272 275 276 279
262 247 265 265 276 249 254 243 238 233 231 231 223 229 227 230 231 233 233 233 229 230 229 234 236 240 244 248 255 261 255 249 253 257 261 265 269 270 265 268 272 274 276 281
241 256 258 268 259 250 246 244 233 233 237 240 231 225 223 224 232 231 229 227 227 226 227 228 232 238 243 248 248 247 243 249 254 259 262 264 263 260 261 268 271 273 277 281
262 268 296 250 257 255 245 224 233 231 240 225 231 234 215 218 218 222 227 227 224 223 228 229 234 237 236 236 233 237 243 248 254 255 255 255 251 253 261 269 271 273 278 278
269 281 280 253 264 261 230 211 227 217 229 232 219 219 208 216 218 212 225 223 220 220 227 229 222 222 225 226 235 234 240 246 249 252 248 244 249 258 267 270 272 275 275 278
279 276 278 259 282 257 224 216 220 214 206 214 216 212 212 207 219 200 197 197 201 207 221 223 222 220 219 221 224 231 237 242 245 241 241 247 252 260 264 267 269 270 274 278
276 270 269 272 277 258 282 217 224 212 197 199 186 182 218 207 205 198 206 186 193 201 207 205 212 216 212 211 218 227 230 234 237 239 243 250 257 257 261 263 266 270 274 279
272 268 258 266 280 281 282 259 228 200 202 207 208 180 201 205 207 206 212 216 220 217 215 208 202 202 203 206 213 218 228 236 236 235 242 252 251 253 260 269 273 270 271 268
263 258 256 250 238 264 259 247 245 227 220 204 205 184 186 186 199 196 199 195 202 198 192 191 190 194 201 205 210 217 225 230 231 234 244 245 246 256 264 268 271 274 270 269
274 254 251 250 249 253 248 247 246 242 236 229 209 207 199 185 184 181 189 179 183 184 181 181 187 192 197 202 211 217 223 225 225 235 237 238 252 265 270 275 273 270 270 270
323 286 257 253 259 248 247 240 243 245 242 236 219 187 181 179 181 181 179 173 178 175 176 179 188 188 193 200 207 214 218 219 226 226 230 242 260 272 272 267 272 275 268 257
333 345 269 256 264 253 260 249 253 246 242 237 215 174 178 182 178 179 180 174 176 175 179 181 188 187 195 200 208 212 213 218 218 225 232 248 267 267 262 270 272 271 254 247
349 350 298 270 259 268 281 267 251 250 247 243 201 185 179 179 180 181 180 177 181 180 181 185 188 192 198 204 207 207 209 211 219 224 234 253 257 249 259 264 252 253 219 218
3 343 334 302 279 275 270 259 251 250 251 245 196 185 178 176 177 182 178 182 181 183 186 186 192 197 200 204 203 203 202 215 216 225 237 250 242 258 254 265 248 257 217 213
343 337 325 318 310 318 330 311 276 264 263 231 191 184 170 167 167 179 177 182 179 183 187 190 190 197 200 200 199 196 206 210 218 229 238 245 253 254 264 238 246 245 194 194
349 4 10 8 358 4 6 350 213 203 190 201 189 182 168 160 173 176 177 176 179 181 187 187 189 195 200 197 195 200 204 208 221 229 238 251 258 261 262 229 220 226 204 189
26 23 19 1 0 350 337 328 295 206 186 191 183 176 173 168 164 171 175 177 179 178 185 187 190 196 199 195 194 203 202 209 219 229 238 250 258 262 244 204 192 187 186 184
24 35 3 343 336 338 326 321 165 181 180 182 180 179 178 167 165 174 175 179 181 180 184 187 187 198 199 191 199 198 201 209 217 224 235 235 238 235 200 187 193 200 184 177
355 336 334 334 345 352 332 88 192 168 148 180 175 180 179 167 165 177 176 180 182 188 189 189 188 198 196 190 195 194 202 208 206 217 225 207 225 201 182 201 190 190 185 174
343 350 338 319 346 354 146 98 156 155 148 165 172 178 179 171 166 170 178 184 186 193 190 184 190 194 194 192 188 188 199 201 196 204 197 171 138 149 164 174 177 176 175 170
345 355 360 359 4 56 127 120 152 151 154 165 171 178 183 178 175 181 182 186 190 194 191 190 189 187 189 192 186 190 194 188 187 188 172 140 128 137 148 147 148 155 160 163
Height
5687 5690 5687 5684 5684 5694 5694 5696 5701 5709 5711 5709 5716 5729 5741 5743 5748 5758 5763 5770 5775 5779 5786 5788 5794 5799 5801 5800 5800 5799 5798 5798 5797 5797 5796 5797 5799 5797 5796 5794 5792 5790 5788 5785
5668 5669 5661 5664 5666 5671 5674 5678 5684 5689 5692 5699 5705 5711 5723 5728 5735 5743 5749 5754 5761 5768 5775 5779 5784 5787 5791 5790 5787 5789 5788 5788 5789 5788 5788 5791 5791 5790 5789 5787 5785 5782 5780 5777
5647 5644 5639 5640 5643 5646 5651 5656 5665 5670 5672 5683 5687 5693 5705 5716 5722 5731 5736 5743 5749 5756 5763 5769 5773 5776 5778 5777 5777 5777 5779 5779 5779 5779 5782 5783 5783 5782 5781 5779 5777 5775 5772 5772
5630 5625 5623 5621 5621 5624 5627 5636 5641 5646 5651 5664 5674 5677 5688 5703 5708 5716 5727 5731 5739 5745 5751 5755 5758 5762 5764 5766 5765 5769 5771 5771 5772 5773 5774 5774 5775 5775 5774 5772 5770 5767 5767 5766
5619 5611 5609 5610 5612 5611 5611 5616 5620 5628 5633 5643 5655 5657 5680 5688 5698 5708 5718 5724 5730 5735 5739 5742 5747 5751 5752 5754 5757 5762 5763 5763 5764 5765 5766 5767 5767 5767 5766 5765 5762 5762 5761 5759
5602 5601 5600 5602 5601 5601 5602 5604 5608 5615 5619 5620 5641 5644 5666 5677 5692 5701 5707 5714 5719 5722 5728 5733 5736 5739 5744 5747 5750 5753 5754 5755 5757 5758 5758 5759 5759 5759 5759 5758 5756 5755 5754 5752
5595 5594 5594 5593 5593 5593 5594 5598 5601 5605 5604 5605 5628 5631 5653 5665 5680 5687 5693 5700 5708 5713 5718 5723 5728 5732 5737 5740 5742 5744 5746 5747 5748 5750 5751 5752 5752 5752 5752 5750 5750 5748 5747 5746
5590 5592 5587 5586 5587 5588 5589 5592 5595 5599 5604 5610 5616 5619 5647 5662 5670 5675 5683 5690 5698 5704 5710 5715 5720 5724 5728 5731 5733 5736 5738 5740 5741 5743 5744 5744 5745 5746 5745 5744 5743 5742 5741 5739
5585 5585 5584 5582 5581 5582 5584 5583 5590 5592 5596 5599 5612 5617 5638 5651 5660 5668 5673 5681 5687 5695 5698 5707 5712 5716 5720 5723 5726 5728 5731 5733 5734 5735 5737 5737 5739 5739 5739 5738 5737 5736 5734 5733
5581 5580 5580 5578 5574 5576 5575 5581 5581 5584 5589 5596 5606 5614 5630 5640 5651 5661 5666 5672 5679 5685 5690 5699 5704 5709 5712 5716 5720 5723 5725 5726 5728 5729 5730 5731 5733 5733 5733 5732 5731 5730 5729 5727
5577 5577 5577 5576 5575 5573 5575 5574 5576 5581 5588 5595 5605 5612 5618 5627 5639 5651 5657 5662 5670 5678 5684 5692 5697 5702 5706 5710 5714 5717 5719 5721 5722 5723 5725 5727 5727 5727 5727 5726 5725 5725 5724 5722
5573 5572 5573 5572 5571 5571 5569 5569 5572 5578 5583 5586 5591 5604 5606 5618 5632 5644 5650 5657 5666 5673 5679 5685 5691 5695 5700 5705 5708 5711 5713 5715 5717 5719 5721 5721 5722 5722 5721 5721 5720 5719 5718 5717
5571 5570 5569 5571 5571 5569 5567 5567 5570 5574 5578 5584 5591 5600 5600 5611 5623 5635 5642 5653 5662 5669 5675 5680 5685 5691 5696 5700 5703 5706 5708 5711 5713 5715 5716 5716 5716 5717 5717 5716 5714 5713 5713 5712
5565 5565 5565 5566 5565 5561 5564 5565 5566 5568 5571 5576 5584 5589 5598 5604 5614 5626 5637 5647 5655 5663 5669 5676 5681 5687 5691 5695 5698 5701 5704 5707 5709 5710 5711 5712 5713 5713 5712 5711 5710 5709 5709 5708
5558 5558 5559 5559 5560 5559 5560 5561 5562 5564 5566 5567 5575 5576 5588 5595 5605 5620 5632 5642 5650 5658 5664 5672 5678 5682 5687 5691 5694 5697 5700 5702 5704 5706 5707 5709 5709 5708 5707 5706 5705 5704 5704 5704
5553 5551 5552 5553 5553 5554 5555 5557 5556 5556 5558 5558 5564 5568 5576 5587 5601 5616 5627 5638 5647 5654 5661 5668 5673 5678 5683 5687 5690 5694 5696 5698 5700 5701 5703 5705 5705 5703 5703 5701 5701 5700 5699 5700
5551 5548 5547 5548 5548 5549 5550 5551 5550 5550 5551 5552 5555 5572 5576 5587 5598 5611 5624 5635 5643 5650 5658 5665 5671 5676 5680 5684 5688 5691 5693 5695 5697 5699 5700 5701 5700 5700 5699 5698 5698 5697 5698 5699
5551 5549 5547 5547 5546 5545 5545 5544 5543 5544 5545 5547 5555 5564 5573 5583 5594 5607 5621 5632 5639 5648 5656 5662 5668 5674 5678 5682 5685 5688 5690 5692 5694 5696 5697 5698 5697 5697 5697 5696 5696 5696 5697 5698
5551 5548 5546 5544 5541 5541 5539 5538 5538 5538 5543 5542 5553 5561 5569 5579 5593 5607 5618 5627 5637 5646 5654 5661 5667 5672 5677 5680 5683 5685 5687 5689 5692 5693 5695 5695 5695 5695 5695 5695 5695 5695 5696 5697
5549 5546 5544 5540 5538 5535 5534 5534 5533 5534 5537 5541 5549 5557 5569 5580 5596 5603 5615 5626 5637 5646 5653 5660 5666 5672 5676 5679 5681 5683 5685 5688 5690 5691 5692 5692 5692 5692 5692 5692 5693 5694 5695 5696
5548 5545 5542 5539 5536 5533 5531 5530 5530 5531 5536 5538 5548 5559 5572 5583 5592 5602 5614 5626 5635 5645 5653 5659 5665 5670 5674 5677 5679 5682 5684 5687 5688 5689 5689 5690 5690 5689 5689 5690 5691 5692 5694 5696
5550 5546 5543 5540 5536 5533 5530 5528 5527 5528 5531 5537 5547 5560 5572 5579 5591 5603 5614 5625 5634 5642 5651 5657 5664 5669 5672 5675 5678 5681 5683 5685 5687 5687 5687 5688 5687 5687 5687 5688 5689 5691 5693 5696
5552 5549 5545 5541 5538 5533 5529 5525 5525 5525 5531 5540 5551 5563 5572 5582 5594 5604 5614 5623 5634 5642 5649 5655 5662 5666 5671 5673 5676 5680 5682 5684 5685 5685 5686 5686 5686 5686 5686 5687 5689 5691 5692 5694
5551 5546 5543 5539 5535 5531 5528 5526 5524 5526 5533 5543 5555 5563 5573 5583 5594 5604 5615 5625 5634 5642 5647 5654 5660 5665 5669 5672 5676 5679 5681 5683 5683 5685 5686 5686 5685 5686 5686 5686 5688 5689 5691 5693
5549 5546 5541 5537 5533 5530 5528 5527 5526 5528 5536 5545 5555 5565 5575 5586 5595 5604 5616 5624 5634 5641 5647 5653 5659 5664 5668 5671 5674 5678 5681 5682 5683 5685 5686 5686 5685 5686 5685 5685 5686 5688 5690 5693
5548 5544 5540 5536 5532 5530 5529 5531 5532 5534 5540 5549 5560 5569 5577 5587 5596 5607 5616 5625 5634 5640 5645 5652 5657 5662 5667 5671 5674 5677 5680 5682 5683 5685 5686 5686 5686 5686 5685 5685 5686 5687 5690 5694